This demonstration page uses our WeatherBlox Daily Observations layout. Learn more.

Left ArrowRight Arrow

Hourly Observations for September 2, 2021

Temp ( °F °C ) Dew Point ( °F °C ) Humidity (%) Winds ( mph kmh ) Pressure ( in mb ) Visibility ( mi km ) Precip ( " mm )
12:52 am 00:52 Mostly Cloudy 70 21.1 62 16.7 76 76 SE 15 24 29.93 1014 10 16 0.00 0.00
1:52 am 01:52 Mostly Cloudy 70 21.1 62 16.7 76 76 SE 16 26 29.93 1014 10 16 0.00 0.00
2:52 am 02:52 Mostly Cloudy 70 21.1 62 16.7 76 76 SSE 15 24 29.92 1013 10 16 0.00 0.00
3:52 am 03:52 Mostly Cloudy 69 20.6 62 16.7 78 78 SSE 12 19 29.95 1014 10 16 0.00 0.00
4:52 am 04:52 Mostly Cloudy 69 20.6 62 16.7 78 78 SE 16 26 29.94 1014 10 16 0.00 0.00
5:52 am 05:52 Cloudy 69 20.6 62 16.7 78 78 SSE 17 28 29.95 1014 10 16 0.00 0.00
6:52 am 06:52 Cloudy 69 20.6 62 16.7 78 78 SSE 16 26 29.93 1014 10 16 0.00 0.00
7:52 am 07:52 Cloudy 69 20.6 62 16.7 78 78 SSE 20 31 29.95 1014 10 16 0.00 0.00
8:52 am 08:52 Cloudy 71 21.7 63 17.2 76 76 SSE 20 31 29.94 1014 10 16 0.00 0.00
9:52 am 09:52 Cloudy 73 22.8 63 17.2 71 71 SE 21 33 29.93 1013 10 16 0.00 0.00
10:52 am 10:52 Cloudy 73 22.8 63 17.2 71 71 SSE 21 33 29.93 1014 10 16 0.00 0.00
11:52 am 11:52 Cloudy 76 24.4 64 17.8 67 67 SSE 23 37 29.92 1013 10 16 0.00 0.00
12:52 pm 12:52 Cloudy 76 24.4 64 17.8 67 67 SE 22 35 29.89 1012 10 16 0.00 0.00
1:52 pm 13:52 Cloudy 77 25 65 18.3 66 66 SE 17 28 29.90 1013 10 16 0.00 0.00
2:52 pm 14:52 Cloudy 76 24.4 65 18.3 69 69 SSE 16 26 29.91 1013 10 16 0.00 0.00
3:52 pm 15:52 Cloudy with Light Rain 75 23.9 67 19.4 76 76 SSE 13 20 29.92 1013 10 16 0.00 0.00
4:52 pm 16:52 Cloudy with Light Rain 73 22.8 68 20 84 84 SSE 14 22 29.88 1012 10 16 0.02 0.51
5:52 pm 17:52 Mostly Cloudy 73 22.8 67 19.4 81 81 SE 16 26 29.85 1011 10 16 0.01 0.25
6:52 pm 18:52 Mostly Cloudy 74 23.3 66 18.9 76 76 SE 14 22 29.86 1011 10 16 0.00 0.00
7:52 pm 19:52 Mostly Cloudy 73 22.8 65 18.3 76 76 SE 15 24 29.85 1011 10 16 0.00 0.00
8:52 pm 20:52 Mostly Cloudy 72 22.2 65 18.3 79 79 SSE 16 26 29.84 1011 10 16 0.00 0.00
9:52 pm 21:52 Mostly Cloudy 72 22.2 65 18.3 79 79 SE 13 20 29.86 1011 10 16 0.00 0.00
10:52 pm 22:52 Cloudy 72 22.2 65 18.3 79 79 SSE 20 31 29.83 1010 10 16 0.00 0.00
11:31 pm 23:31 Cloudy with Thunderstorms 73 22.8 64 17.8 74 74 SSE 15 24 29.83 1010 10 16 0.00 0.00
11:52 pm 23:52 Cloudy with Thunderstorms 73 22.8 65 18.3 76 76 SW 9 15 29.87 1012 10 16 0.00 0.00

Powered by AerisWeather